Location: Kikino
(54.4440°N, 112.0940°W)
Time: 04:31:29
(UTC+00:00)

A-11 Canister half - Visible Passes

Search period start: 24 May 2024 00:00
Search period end: 03 June 2024 00:00
Orbit: 1514 x 1685 km, 47.2° (Epoch: 23 May)

Date Brightness Start Highest point End Pass type
(mag) Time Alt. Az. Time Alt. Az. Time Alt. Az.
24 May 10.0 08:19:52 16° S 08:25:01 26° SE 08:32:09 10° E visible
25 May 10.0 07:57:31 17° S 08:02:09 24° SE 08:09:08 10° E visible
25 May 9.4 09:56:28 10° SW 10:05:22 47° SSE 10:14:04 10° E visible
26 May 10.0 07:35:05 17° S 07:39:17 23° SE 07:46:06 10° E visible
26 May 9.4 09:33:34 10° SW 09:42:27 46° SSE 09:51:08 10° E visible
27 May 10.0 07:12:33 17° SSE 07:16:25 22° SE 07:23:03 10° E visible
27 May 9.3 09:10:40 10° SW 09:19:32 45° SSE 09:28:11 10° E visible
28 May 10.1 06:49:51 17° SSE 06:53:34 21° SE 06:59:59 10° E visible
28 May 9.4 08:47:57 11° SW 08:56:37 44° SSE 09:05:14 10° E visible
29 May 10.1 06:26:58 16° SSE 06:30:42 20° SE 06:36:53 10° E visible
29 May 9.4 08:25:02 11° SW 08:33:43 43° SSE 08:42:17 10° E visible
30 May 10.1 06:03:45 14° SSE 06:07:51 19° SE 06:13:47 10° E visible
30 May 9.4 08:02:01 10° SW 08:10:48 42° SSE 08:19:20 10° E visible
30 May 9.1 10:05:25 10° WSW 10:14:37 56° S 10:23:36 10° ESE visible
31 May 10.2 05:39:57 11° SSE 05:45:00 18° SE 05:50:39 10° E visible
31 May 9.4 07:39:08 10° SW 07:47:53 41° SSE 07:56:23 10° E visible
31 May 9.1 09:42:28 10° WSW 09:51:42 56° S 10:00:40 10° ESE visible
01 Jun 10.2 05:16:44 10° SSE 05:22:09 16° SE 05:27:28 10° E visible
01 Jun 9.4 07:16:16 10° SW 07:24:59 39° SSE 07:33:26 10° E visible
01 Jun 9.1 09:19:30 10° WSW 09:28:45 56° S 09:37:45 10° E visible
02 Jun 10.2 04:54:16 10° SSE 04:59:18 15° SE 05:04:16 10° E visible
02 Jun 9.4 06:53:25 10° SSW 07:02:04 38° SSE 07:10:28 10° E visible
02 Jun 9.1 08:56:32 10° WSW 09:05:49 56° S 09:14:49 10° E visible
